Weather Roundup
Issued by NWS Corpus Christi, TX

Home | Current Version | Previous Version | Text Only | Print | Product List | Glossary On
Versions: 1 2 3 4 5 6 7 8 9 10 11 12 13 14 15 16 17 18 19 20 21 22 23 24 25 26 27 28 29 30 31 32 33 34 35 36 37 38 39 40 41 42 43 44 45 46 47 48 49 50
000
ASUS44 KCRP 060110
HRRCRP

SOUTH TEXAS REGIONAL WEATHER ROUNDUP
NATIONAL WEATHER SERVICE CORPUS CHRISTI TX
800 PM CDT SUN JUL 05 2015


TXZ229>244-060200-
...CORPUS CHRISTI AREA OBSERVATIONS...

CITY           SKY/WX    TMP DP  RH WIND       PRES   REMARKS
CORPUS CHRISTI PTCLDY    84  76  76 SE22G30   29.95R HX  93
NAS CORPUS CHR CLEAR     83  78  85 SE17G28   29.96R HX  93
ROCKPORT       LGT RAIN  84  77  79 SE13G24   29.96R HX  94
KINGSVILLE NAS MOCLDY    85  80  85 SE15G26   29.94R HX  99
ALICE          CLOUDY    85  77  77 SE17G24   29.93R HX  95
FALFURRIAS     PTCLDY    87  74  64 SE13G22   29.93R HX  95
$$

...VICTORIA AREA OBSERVATIONS...

CITY           SKY/WX    TMP DP  RH WIND       PRES   REMARKS
VICTORIA       PTCLDY    84  75  74 S16       29.98R HX  92
BEEVILLE       FAIR      82  78  87 SE13G20   29.96R HX  92
PLEASANTON     PTCLDY    86  73  66 SE9G18    29.94R HX  93
SAN ANTONIO    PTCLDY    86  72  62 SE21      29.95R HX  92
$$

...LAREDO AREA OBSERVATIONS...

CITY           SKY/WX    TMP DP  RH WIND       PRES   REMARKS
LAREDO         PTCLDY    93  72  50 SE20      29.90R HX 100
COTULLA        LGT RAIN  91  71  51 SE15G26   29.90R HX  97
DEL RIO        CLEAR     89  68  49 SE14      29.89S HX  93
MCALLEN        PTCLDY    88  75  65 SE21      29.93R HX  97
HEBBRONVILLE     N/A     87  71  58 SE13G24   29.94R HX  92
$$

...OTHER TEXAS OBSERVATIONS...

CITY           SKY/WX    TMP DP  RH WIND       PRES   REMARKS
BROWNSVILLE    MOCLDY    84  78  82 SE16G30   29.95S HX  95
HOUSTON        PTCLDY    87  73  62 S9        30.00R HX  94
COL. STATION   CLEAR     87  72  60 S9        29.97R HX  93
AUSTIN         PTCLDY    85  71  63 SE15      29.94S HX  90
WACO           PTCLDY    88  69  53 S18       29.93S HX  92
FORT WORTH     PTCLDY    89  68  49 S15       29.92R HX  93
WICHITA FALLS  CLEAR     88  68  51 S15       29.87R HX  91
LUBBOCK        PTSUNNY   89  62  40 S17       29.93F
EL PASO        MOSUNNY   90  57  32 W18G24    29.95S
$$

...MARINE OBSERVATIONS...

STATION/POSITION TIME  SKY/WX   TEMP    WIND        PRES    VSBY  WAVE   SWELL
                                AIR SEA DIR/SP/G                  HT/PER HT/PER
                 (UTC)          (F)     (DEG/KT/KT) (MB)    (MI)  (FT/S) (FT/S)
PORT ARANSAS     0100            82 83  140/ 16/ 17 1015.7R
BUOY 90 E PORT A NOT AVBL
BUOY 45 SE BAFFI 0050            83 83  150/ 17/ 21 1014.2F         4/ 6   2/10
BUOY 200 E PT IS 0050            85 84  150/ 14/ 16 1016.9S         3/ 5   2/10
BUOY 15 E GALVES 0050            85 85  160/ 12/ 14 1016.5R         3/ 5   2/ 6
$$



USA.gov is the U.S. government's official web portal to all federal, state and local government web resources and services.